TimeCDT,TemperatureF,Dew PointF,Humidity,Sea Level PressureIn,VisibilityMPH,Wind Direction,Wind SpeedMPH,Gust SpeedMPH,PrecipitationIn,Events,Conditions,WindDirDegrees,DateUTC
12:53 AM,37.9,37.0,97,29.96,3.0,East,8.1,-,N/A,,Clear,90,2012-11-02 05:53:00
1:27 AM,37.4,37.4,100,29.93,3.0,East,8.1,-,N/A,,Partly Cloudy,90,2012-11-02 06:27:00
1:53 AM,37.9,37.0,97,29.95,3.0,East,6.9,-,N/A,,Clear,80,2012-11-02 06:53:00
2:53 AM,37.0,36.0,96,29.95,3.0,East,5.8,-,N/A,,Clear,100,2012-11-02 07:53:00
3:53 AM,37.0,36.0,96,29.94,4.0,ESE,4.6,-,N/A,,Clear,120,2012-11-02 08:53:00
4:53 AM,35.1,34.0,96,29.93,4.0,East,5.8,-,N/A,,Clear,80,2012-11-02 09:53:00
5:53 AM,36.0,35.1,97,29.93,4.0,ESE,5.8,-,N/A,,Clear,110,2012-11-02 10:53:00
6:53 AM,36.0,35.1,97,29.93,5.0,East,5.8,-,N/A,,Clear,90,2012-11-02 11:53:00
7:53 AM,36.0,34.0,93,29.92,7.0,ESE,6.9,-,N/A,,Clear,110,2012-11-02 12:53:00
8:53 AM,37.9,35.1,89,29.95,9.0,East,8.1,-,N/A,,Clear,100,2012-11-02 13:53:00
9:53 AM,39.9,35.1,83,29.97,10.0,ESE,8.1,-,N/A,,Clear,110,2012-11-02 14:53:00
10:53 AM,43.0,36.0,76,29.96,10.0,ESE,9.2,-,N/A,,Clear,110,2012-11-02 15:53:00
11:53 AM,46.0,36.0,68,29.97,10.0,East,5.8,-,N/A,,Clear,100,2012-11-02 16:53:00
12:53 PM,50.0,37.0,61,29.98,10.0,North,5.8,-,N/A,,Clear,350,2012-11-02 17:53:00
1:53 PM,52.0,37.0,57,29.97,10.0,North,8.1,-,N/A,,Clear,360,2012-11-02 18:53:00
2:53 PM,52.0,36.0,54,29.97,10.0,North,16.1,-,N/A,,Clear,350,2012-11-02 19:53:00
3:53 PM,52.0,36.0,54,29.99,10.0,North,16.1,-,N/A,,Clear,350,2012-11-02 20:53:00
4:53 PM,48.0,37.0,66,30.01,10.0,North,15.0,-,N/A,,Clear,350,2012-11-02 21:53:00
5:53 PM,46.9,36.0,66,30.04,10.0,North,10.4,-,N/A,,Scattered Clouds,350,2012-11-02 22:53:00
6:53 PM,45.0,36.0,71,30.07,10.0,North,15.0,-,N/A,,Clear,350,2012-11-02 23:53:00
7:10 PM,46.4,37.4,71,30.05,10.0,North,15.0,-,N/A,,Mostly Cloudy,350,2012-11-03 00:10:00
7:42 PM,42.8,35.6,76,30.07,10.0,North,12.7,-,N/A,,Scattered Clouds,350,2012-11-03 00:42:00
7:53 PM,43.0,36.0,76,30.11,9.0,North,12.7,-,N/A,,Clear,350,2012-11-03 00:53:00
8:53 PM,39.9,35.1,83,30.12,10.0,NNW,10.4,-,N/A,,Clear,340,2012-11-03 01:53:00
9:53 PM,39.0,34.0,82,30.14,10.0,NNW,10.4,-,N/A,,Clear,340,2012-11-03 02:53:00
10:53 PM,37.0,33.1,86,30.15,10.0,North,8.1,-,N/A,,Clear,360,2012-11-03 03:53:00
11:53 PM,37.9,34.0,86,30.15,10.0,North,9.2,-,N/A,,Clear,350,2012-11-03 04:53:00